If you wish to contribute or participate in the discussions about articles you are invited to join SKYbrary as a registered user

 Actions

Akhiok Airport

From SKYbrary Wiki

PAKH
Airport
ICAO: PAKH – IATA: AKK
Summary
Name Akhiok Airport
Region North America
Territory Alaska US.gif
Location , Alaska
Serving Akhiok
Elevation 13.411 m
44 ft
44 ft13.411 m
Type small airport
Coordinates 56° 56' 18.9996", -154° 10' 57"
Close to Gulf Of Alaska
Runways
Designator Length Width Surface ROPS
4/22 951 m3,120.079 ft 15 m49.213 ft GRAVEL-G /


METAR
Observation PAKH 251856Z AUTO 30012G21KT 10SM CLR 02/M04 A3004 RMK AO2 SLP174 T00171039 FZRANO $
Station AKHIOK
Date/Time 25 February 2018 18:56:00
Wind direction 300°
Wind speed 12 kts
Lowest cloud amount n/a
Temperature 1.7°C
Dew point
Humidity 66%
QNH hPa
Weather condition n/a